Regional Weather Roundup
Issued by NWS

Home | Current Version | Previous Version | Graphics & Text | Print | Product List | Glossary On
Versions: 1 2 3 4 5 6 7 8 9 10 11 12 13 14 15 16 17 18 19 20 21 22 23 24 25 26 27 28 29 30 31 32 33 34 35 36 37 38 39 40 41 42 43 44 45 46 47 48 49 50
000
ASUS43 KDMX 241806
RWRIA

WEATHER ROUNDUP FOR IOWA
NATIONAL WEATHER SERVICE DES MOINES IA
100 PM CDT MON JUL 24 2017

NOTE: "FAIR" INDICATES FEW OR NO CLOUDS BELOW 12,000 FEET WITH NO
SIGNIFICANT WEATHER AND/OR OBSTRUCTIONS TO VISIBILITY.

* - THESE STATIONS ARE NOT NWS STATIONS...THUS NOT UNDER NWS
QUALITY CONTROL.  THEY ALSO DO NOT REPORT WEATHER SUCH
AS PRECIPITATION OR FOG.

IAZ001>003-012>014-020>022-031>034-043>046-241900-
   NORTHWEST IOWA

CITY           SKY/WX    TMP DP  RH WIND       PRES   REMARKS
CARROLL *      MOSUNNY   75  64  69 E6G14     30.03F
CHEROKEE *     MOSUNNY   79  62  56 SE8       30.02S HX  80
DENISON *      SUNNY     77  63  61 VRB7      30.04F
ORANGE CITY *  SUNNY     77  63  61 S7        30.02F
SHELDON *      SUNNY     77  63  61 SE9       30.01S
SIOUX CITY     SUNNY     81  65  58 S8        30.00F HX  83
6HR MIN TEMP:  58; 6HR MAX TEMP:  81;

SPENCER        SUNNY     78  60  53 MISG      30.03F
6HR MIN TEMP:  57; 6HR MAX TEMP:  78;

STORM LAKE *     N/A     77  63  61 VRB7G14   30.03F
$$

IAZ055>058-069>071-079>083-090>094-241900-
   SOUTHWEST IOWA

CITY           SKY/WX    TMP DP  RH WIND       PRES   REMARKS
ATLANTIC *     SUNNY     81  61  50 VRB5G12   30.02F HX  81
AUDUBON *      SUNNY     79  64  61 SE8       30.04F HX  81
CLARINDA *     SUNNY     81  66  61 VRB5      30.04S HX  83
COUNCIL BLFS * MOSUNNY   79  66  65 VRB6G12   30.02F HX  81
CRESTON *      SUNNY     81  61  50 CALM      30.05S HX  81
HARLAN  *      SUNNY     79  63  57 E8        30.06F HX  80
LAMONI         SUNNY     80  62  54 S5        30.03S HX  81
6HR MIN TEMP:  62; 6HR MAX TEMP:  82;

RED OAK *      SUNNY     81  64  57 VRB7      30.03S HX  82
SHENANDOAH *   SUNNY     79  63  57 CALM      30.03S HX  80
$$

IAZ047>049-059>061-072>074-084-241900-
   CENTRAL IOWA

CITY           SKY/WX    TMP DP  RH WIND       PRES   REMARKS
AMES           MOSUNNY   77  63  61 E6        30.03F
6HR MIN TEMP:  62; 6HR MAX TEMP:  78;

ANKENY *       MOSUNNY   77  63  61 VRB6G13   30.04F
BOONE *        MOSUNNY   77  61  57 E5        30.03F
CHARITON *     SUNNY     81  59  47 MISG      30.02F HX  81
DES MOINES     MOSUNNY   80  59  48 VRB3      30.01F HX  81
6HR MIN TEMP:  65; 6HR MAX TEMP:  81;

GRINNELL*      MOSUNNY   74  62  67 E6        30.06S
KNOXVILLE *    SUNNY     77  59  53 VRB7G13   30.02S
MARSHALLTOWN   PTSUNNY   75  63  66 VRB7      30.05S
6HR MIN TEMP:  60; 6HR MAX TEMP:  75;

NEWTON *       MOSUNNY   75  63  64 E6G12     30.04S
PELLA *        MOSUNNY   80  60  50 CALM      30.04F HX  81
$$

IAZ004>006-015-016-023>025-035-036-241900-
   NORTH CENTRAL IOWA

CITY           SKY/WX    TMP DP  RH WIND       PRES   REMARKS
ALGONA *       MOSUNNY   75  61  60 VRB6      30.04F
CLARION *      MOSUNNY   75  64  69 E8        30.05F
ESTHERVILLE    PTSUNNY   73  62  68 S5        30.04S
6HR MIN TEMP:  55; 6HR MAX TEMP:  73;

FORT DODGE *   SUNNY     77  63  61 E8G90     30.05S
MASON CITY     CLOUDY    73  61  65 SE10      30.07F
6HR MIN TEMP:  57; 6HR MAX TEMP:  73;

FOREST CITY *  PTSUNNY   72  61  68 E8        30.06F
WEBSTER CITY * MOSUNNY   77  61  57 E8        30.02F
IOWA FALLS *   PTSUNNY   75  63  66 NE6       30.06F
$$

IAZ007>011-017>019-026>030-037>042-050>054-066-241900-
   NORTHEAST IOWA

CITY           SKY/WX    TMP DP  RH WIND       PRES   REMARKS
CEDAR RAPIDS   PTSUNNY   74  65  73 E8        30.04F
6HR MIN TEMP:  64; 6HR MAX TEMP:  74;

CHARLES CITY * CLOUDY    73  61  64 VRB6      30.07S
DECORAH *      CLOUDY    66  59  77 E5        30.09R
DUBUQUE        CLOUDY    70  59  68 NE7       30.07F
6HR MIN TEMP:  61; 6HR MAX TEMP:  71;

MONTICELLO *   CLOUDY    72  63  73 VRB5      30.05S
OELWEIN *        N/A    N/A N/A N/A MISG        N/A
WATERLOO       CLOUDY    73  63  70 NE5       30.05S
6HR MIN TEMP:  63; 6HR MAX TEMP:  74;

$$

IAZ064-065-067-068-078-241900-
   EAST CENTRAL IOWA

CITY           SKY/WX    TMP DP  RH WIND       PRES   REMARKS
DAVENPORT      CLOUDY    71  63  75 NE9       30.07S
6HR MIN TEMP:  65; 6HR MAX TEMP:  71;

IOWA CITY      PTSUNNY   76  64  66 E6        30.05F
6HR MIN TEMP:  66; 6HR MAX TEMP:  78;

MT. PLEASANT * MOSUNNY   79  63  58 NE6       30.02F HX  81
MUSCATINE *    PTSUNNY   75  64  69 NE10      30.03S
QUAD CITIES    CLOUDY    73  64  73 VRB5      30.04S
6HR MIN TEMP:  69; 6HR MAX TEMP:  73;

$$

IAZ062-063-075>077-085>089-095>099-241900-
   SOUTHEAST IOWA

CITY           SKY/WX    TMP DP  RH WIND       PRES   REMARKS
BURLINGTON     MOSUNNY   78  67  68 VRB7      30.02S HX  80
6HR MIN TEMP:  66; 6HR MAX TEMP:  79;

FAIRFIELD *    PTSUNNY   77  63  61 NE9       30.02S
FORT MADISON * PTSUNNY   75  66  73 CALM      30.03S
KEOKUK *       MOSUNNY   79  68  69 E9G15     30.01S HX  81
OSKALOOSA *      N/A     79  62  57 NE3       30.03F HX  80
CENTERVILLE *    N/A     81  61  50 CALM      30.04S HX  81
OTTUMWA        MOSUNNY   81  60  48 E8        30.02F HX  82
6HR MIN TEMP:  63; 6HR MAX TEMP:  81;

WASHINGTON *   MOSUNNY   77  66  69 NE7G13    30.04F
$$

ABBREVIATIONS USED IN REMARKS
   TC - TEMPERATURES IN CELSIUS
  WCI - WIND CHILL INDEX
   HX - HEAT INDEX
  VSB - VISIBILITY
$$





USA.gov is the U.S. government's official web portal to all federal, state and local government web resources and services.